Location: Castelbiague
(43.0361°N, 0.9246°E)
Time: 14:26:30
(UTC+00:00)

Cosmos 1300 - Pass Details

Date: 17 June 2021
Orbit: 509 x 513 km, 82.5° (Epoch: 30 July)

Event Time Altitude Azimuth Distance (km) Brightness Sun altitude
Rises 21:47:42 0° 355° (N) 2,636 7.5 -17.2°
Reaches altitude 10° 21:49:53 10° 0° (N) 1,744 6.3 -17.4°
Maximum altitude 21:53:38 56° 79° (E) 612 2.9 -17.7°
Enters shadow 21:54:34 43° 131° (SE) 731 3.0 -17.8°
